Regional Weather Roundup
Issued by NWS

Home | Current Version | Previous Version | Graphics & Text | Print | Product List | Glossary On
Versions: 1 2 3 4 5 6 7 8 9 10 11 12 13 14 15 16 17 18 19 20 21 22 23 24 25 26 27 28 29 30 31 32 33 34 35 36 37 38 39 40 41 42 43 44 45 46 47 48 49 50
000
ASUS45 KBOI 040710
RWRID

IDAHO REGIONAL WEATHER ROUNDUP
NATIONAL WEATHER SERVICE BOISE ID
100 AM MDT SAT JUL 04 2015

NOTE: "FAIR" INDICATES FEW OR NO CLOUDS BELOW 12000 FEET
WITH NO SIGNIFICANT WEATHER AND/OR OBSTRUCTIONS TO VISIBILITY

IDZ012-014-040800-
SOUTHWEST IDAHO


CITY           SKY/WX    TMP DP  RH WIND       PRES   REMARKS
BOISE          MOCLDY    82  41  23 SE5       29.82S
CALDWELL       MOCLDY    75  50  41 W5        29.81S
MOUNTAIN HOME  CLOUDY    82  34  17 N5        29.83S
$$

IDZ016-017-040800-
SOUTHCENTRAL IDAHO


CITY           SKY/WX    TMP DP  RH WIND       PRES   REMARKS
BURLEY         PTCLDY    70  52  52 SW6       29.91S
JEROME         MOCLDY    74  48  39 CALM      29.92S
TWIN FALLS     PTCLDY    79  46  31 S12       29.90S
$$

IDZ019>023-040800-
SOUTHEAST IDAHO


CITY           SKY/WX    TMP DP  RH WIND       PRES   REMARKS
IDAHO FALLS    PTCLDY    70  54  56 SW7       29.93R
POCATELLO      CLEAR     74  48  39 S8        29.94R
REXBURG        PTCLDY    66  56  70 CALM      29.93S
$$

IDZ006-010-011-018-031-032-040800-
CENTRAL IDAHO MOUNTAINS


CITY           SKY/WX    TMP DP  RH WIND       PRES   REMARKS
MCCALL         CLEAR     66  44  45 CALM      30.00S
HAILEY         MOCLDY    68  41  37 NW12      30.02S
STANLEY          N/A     53  32  44 SE5       30.15R
SALMON         CLEAR     66  39  37 CALM      29.92S
CHALLIS        CLEAR     66  37  34 CALM      30.00R
$$

IDZ002-004-006-007-026-040800-
NORTHERN IDAHO


CITY           SKY/WX    TMP DP  RH WIND       PRES   REMARKS
LEWISTON       CLEAR     82  42  24 S3        29.75S
LOWELL           N/A     68  55  63 N5        29.83R
COEUR D`ALENE  CLEAR     73  55  53 SE7       29.79R
MULLAN PASS    CLEAR     70  34  26 VRB5      30.08F
$$


USA.gov is the U.S. government's official web portal to all federal, state and local government web resources and services.